Regional Weather Roundup
Issued by NWS

Home | Current Version | Previous Version | Graphics & Text | Print | Product List | Glossary On
Versions: 1 2 3 4 5 6 7 8 9 10 11 12 13 14 15 16 17 18 19 20 21 22 23 24 25 26 27 28 29 30 31 32 33 34 35 36 37 38 39 40 41 42 43 44 45 46 47 48 49 50
740
ASUS43 KMPX 221501
RWRMN
WEATHER ROUNDUP FOR MINNESOTA
NATIONAL WEATHER SERVICE TWIN CITIES/CHANHASSEN MN
1000 AM CDT SUN OCT 22 2017


NOTE: "FAIR" INDICATES FEW OR NO CLOUDS BELOW 12,000 FEET WITH NO
SIGNIFICANT WEATHER AND/OR OBSTRUCTIONS TO VISIBILITY. N/A MEANS
CURRENT SKY AND/OR WEATHER CONDITIONS ARE NOT AVAILABLE.

MNZ060>063-068>070-221600-
   Twin Cities Metro

CITY           SKY/WX    TMP DP  RH WIND       PRES   REMARKS
TWIN CITIES    CLOUDY    50  42  74 W6        29.99R
ST PAUL        CLOUDY    50  42  74 W6        30.00R
CRYSTAL        CLOUDY    49  38  65 SW7       29.97R
BLAINE         PTSUNNY   52  43  71 SW5       29.96S
LAKEVILLE      CLOUDY    46  41  81 W5        29.99R
EDEN PRAIRIE   CLOUDY    48  42  80 SW6       29.98R
SOUTH ST PAUL  CLOUDY    49  41  73 W7        29.99R
LAKE ELMO      FAIR      50  43  76 W7        29.99R
$$
MNZ001>005-007-008-013>017-022>024-027-028-221600-
   Northwest Minnesota

CITY           SKY/WX    TMP DP  RH WIND       PRES   REMARKS
BEMIDJI        SUNNY     46  34  61 W13G22    29.83F
HALLOCK        SUNNY     46  36  66 SW17      29.77R
ROSEAU         SUNNY     46  37  71 SW15G22   29.74R
WARROAD        SUNNY     46  37  71 SW16G24   29.74R
CROOKSTON      SUNNY     46  34  61 W15       29.84R
FOSSTON        SUNNY     45  34  65 SW16      29.86R
DETROIT LAKES  SUNNY     45  36  70 W7        29.89S
MOORHEAD       SUNNY     43  34  70 SW8       29.91R
PARK RAPIDS    SUNNY     48  37  65 W8        29.87S
MAHNOMEN       FAIR      44  35  69 SW10      29.87S
$$
MNZ006-009>011-018-025>026-221600-
   North Central Minnesota

CITY           SKY/WX    TMP DP  RH WIND       PRES   REMARKS
BAUDETTE       SUNNY     46  36  68 SW18G28   29.74R
FLAG ISLAND    CLOUDY    46  37  71 SW18G31   29.67R
INTL FALLS     SUNNY     47  39  74 SW13G23   29.74R
WASKISH        SUNNY     48  39  71 SW20      29.78R
BIG FORK       SUNNY     48  37  66 SW16G25   29.80R
LONGVILLE      SUNNY     48  37  66 SW9G17    29.86R
GRAND RAPIDS   SUNNY     47  38  71 W13       29.87R
CRANE LAKE     CLOUDY    46  39  76 SW8       29.80R
ORR            MOSUNNY   43  37  81 S6        29.77R
COOK           PTSUNNY   46  39  76 SW9       29.81R
WALKER         FAIR      47  34  60 W14G22    29.85S
$$
MNZ012-019>021-037-221600-
   Northeast Minnesota

CITY           SKY/WX    TMP DP  RH WIND       PRES   REMARKS
DULUTH         CLOUDY    46  41  82 W15       29.86R
ELY            CLOUDY    46  37  71 SW13      29.81R
HIBBING        CLOUDY    44  39  82 SW5       29.83S
EVELETH        CLOUDY    45  42  89 SW12      29.84S
DULUTH HARBOR  CLOUDY    50  45  81 SW13      29.89R
TWO HARBORS    CLOUDY    50  43  76 SW6       29.84R
SILVER BAY     CLOUDY    48  43  81 SW6       29.83R
G MARAIS ARPRT CLOUDY    45  37  76 SW7G17    29.80S
$$
MNZ029>031-032-039>041-046>048-054>057-064-221600-
   West Central Minnesota

CITY           SKY/WX    TMP DP  RH WIND       PRES   REMARKS
FERGUS FALLS   SUNNY     45  36  70 W9        29.94S
WHEATON        SUNNY     46  36  66 SW12      29.96F
MORRIS         SUNNY     48  37  66 W7        29.94S
ALEXANDRIA     SUNNY     46  37  71 SW9       29.95S
ELBOW LAKE     FAIR      44  36  74 SW8       29.93F
WADENA         SUNNY     46  36  66 SW9       29.89F
GLENWOOD       SUNNY     45  37  76 SW13      29.95S
APPLETON       SUNNY     48  37  66 SW9       29.97R
BENSON         SUNNY     46  37  71 W9        29.98S
ORTONVILLE     SUNNY     48  36  61 CALM      29.97R
MADISON        SUNNY     52  37  58 SW10      29.98S
WILLMAR        FAIR      46  39  76 W8        29.99R
$$
MNZ033>034-036-042>043-049>051-058-059-221600-
   Central Minnesota

CITY           SKY/WX    TMP DP  RH WIND       PRES   REMARKS
ST CLOUD       SUNNY     47  41  80 W12       29.95S
SAUK CENTRE    FAIR      45  38  76 W8        29.95S
PAYNESVILLE    SUNNY     47  40  75 SW9       29.97S
AITKIN         MOSUNNY   46  37  71 SW10G17   29.88S
PINE RIVER     SUNNY     46  36  66 SW6       29.92R
BRAINERD       SUNNY    N/A N/A N/A W15       29.91R
STAPLES        SUNNY     46  36  66 SW10      29.91R
LONG PRAIRIE   FAIR      45  37  76 S7        29.94S
LITTLE FALLS   SUNNY     46  34  61 SW6       29.93S
LITCHFIELD     SUNNY     48  41  76 W6        29.98R
BUFFALO        MOSUNNY   47  41  80 SW5       29.99R
MAPLE LAKE     CLOUDY    48  42  79 SW7       29.98R
HUTCHINSON     SUNNY     49  41  74 W9        30.00R
$$
MNZ037-044-045-052-053-221600-
   East Central Minnesota

CITY           SKY/WX    TMP DP  RH WIND       PRES   REMARKS
PRINCETON      CLOUDY    46  41  81 SW6       29.95S
MORA           PTSUNNY   45  39  81 SW6       29.95R
CAMBRIDGE      PTSUNNY   50  39  66 SW6       29.95S
RUSH CITY      PTSUNNY   48  40  75 SW6       29.95R
MOOSE LAKE     PTSUNNY   46  41  81 CALM      29.89R
HINCKLEY       FAIR      46  41  81 SW10      29.93S
CLOQUET        CLOUDY    46  39  76 SW8       29.87S
MCGREGOR       MOSUNNY   43  37  81 SW6       29.89S
$$
MNZ071>073-080-081-089-090-097-098-221600-
   Southwest Minnesota

CITY           SKY/WX    TMP DP  RH WIND       PRES   REMARKS
MONTEVIDEO     SUNNY     50  37  62 W7        29.99R
GRANITE FALLS  SUNNY     49  40  72 SW9       30.01S
CANBY          SUNNY     51  35  54 SW13G18   30.01R
MARSHALL       SUNNY     51  35  54 W12       30.01S
REDWOOD FALLS  SUNNY     49  37  63 W9        30.00R
OLIVIA         SUNNY     50  41  71 W10       29.99R
PIPESTONE      SUNNY     41  36  81 CALM      30.03S
WORTHINGTON    SUNNY     46  37  71 W8        30.05R
JACKSON        SUNNY     46  36  66 W9        30.04R
TRACY          SUNNY     50  37  62 SW9       30.02R
SLAYTON        SUNNY     47  35  64 W10       30.04S
$$
MNZ065>067-074>077-082>085-091>093-221600-
   South Central Minnesota

CITY           SKY/WX    TMP DP  RH WIND       PRES   REMARKS
MANKATO        CLOUDY    46  40  79 SW3       30.02R
NEW ULM          N/A     46  39  76 W9        30.01R
ST JAMES       SUNNY     48  39  71 SW9       30.03R
FAIRMONT       SUNNY     48  39  71 W10       30.04R
GLENCOE        CLOUDY    48  41  78 SW8       29.99R
FARIBAULT      CLOUDY    48  43  81 W8        30.01R
OWATONNA       CLOUDY    48  43  81 W7        30.01R
WASECA         CLOUDY    46  41  81 W8        30.03R
$$
MNZ078>079-086>088-094>096-221600-
   Southeast Minnesota

CITY           SKY/WX    TMP DP  RH WIND       PRES   REMARKS
ROCHESTER      CLOUDY    48  43  82 W9        30.02R
RED WING       CLOUDY    52  39  62 W6        29.98R
STANTON        CLOUDY    50  42  75 SW5       29.99R
DODGE CENTER   CLOUDY    48  39  71 W8        30.01R
WINONA         CLOUDY    52  43  71 NW3       29.99R
AUSTIN         CLOUDY    48  41  76 W5        30.02R
PRESTON        CLOUDY    48  42  78 NW8       30.01R
$$
ABBREVIATIONS USED IN REMARKS
   TC - TEMPERATURES IN CELSIUS
  WCI - WIND CHILL INDEX
   HX - HEAT INDEX
  VSB - VISIBILITY
$$




USA.gov is the U.S. government's official web portal to all federal, state and local government web resources and services.